Date String (YYYY-MM-DD hh:mm:ss) UTC,Instrument flags,absolute air pressure of the measurement (hPa),sample flow rate (lpm),inlet stack bypass flow (lpm),air temperature of the measurement (°C),ambient temperature measured by the external sensor (°C),aerosol sample conditioner tube jacket temperature (°C),OPC LED temperature (°C),internal box temperature (°C),relative humidity of the measurement (%),span deviation,mass concentration of particles derived from Lorenz-Mie calculation of OPC scattering (μg/m³),mass concentration of particles derived from Lorenz-Mie calculation of OPC scattering (μg/m³),mass concentration of particles derived from Lorenz-Mie calculation of OPC scattering (μg/m³)
DateTimeUTC,F1_M11,P_M11,Q1_M11,Q2_M11,T1_M11,T2_M11,T3_M11,T4_M11,T5_M11,U1_M11,ZSPAN_M11,X0_M11,X2_M11,X1_M11
2023-11-04 02:00:00,SystemResetWarning,0833.1,5.00,000.00,027.6,025.7,000.0,036.0,028.9,12.3,0000.0,0009.66,0002.66,0001.69
2023-11-04 02:01:00,SystemResetWarning,0833.1,5.00,000.00,027.6,026.0,000.0,036.0,029.0,12.5,0000.0,0009.44,0002.67,0001.70
2023-11-04 02:02:00,SystemResetWarning,0833.1,5.02,000.00,027.6,026.2,000.0,036.0,029.0,12.5,0000.0,0008.70,0002.69,0001.70
2023-11-04 02:03:00,SystemResetWarning,0833.2,5.00,000.00,027.6,026.3,000.0,036.0,029.1,12.5,0000.0,0008.71,0002.74,0001.70
2023-11-04 02:04:00,SystemResetWarning,0833.2,4.98,000.00,027.6,026.4,000.0,036.0,029.2,12.5,0000.0,0008.12,0002.75,0001.71
2023-11-04 02:05:00,SystemResetWarning,0833.2,5.00,000.00,027.6,026.6,000.0,036.0,029.2,12.5,0000.0,0008.40,0002.69,0001.70
2023-11-04 02:06:00,SystemResetWarning,0833.2,5.00,000.00,027.7,026.7,000.0,036.0,029.2,12.5,0000.0,0008.54,0002.67,0001.69
2023-11-04 02:07:00,SystemResetWarning,0833.2,4.99,000.00,027.7,026.7,000.0,036.0,029.3,12.5,0000.0,0008.95,0002.73,0001.68
2023-11-04 02:08:00,SystemResetWarning,0833.2,5.00,000.00,027.7,026.8,000.0,036.0,029.3,12.5,0000.0,0010.79,0002.76,0001.67
2023-11-04 02:09:00,SystemResetWarning,0833.2,5.01,000.00,027.8,026.9,000.0,036.0,029.3,12.5,0000.0,0011.51,0002.84,0001.69
2023-11-04 02:10:00,SystemResetWarning,0833.2,5.01,000.00,027.8,026.9,000.0,036.0,029.4,12.5,0000.0,0011.43,0002.83,0001.69
2023-11-04 02:11:00,SystemResetWarning,0833.2,4.99,000.00,027.8,027.0,000.0,036.1,029.4,12.5,0000.0,0011.24,0002.84,0001.68
2023-11-04 02:12:00,SystemResetWarning,0833.2,5.00,000.00,027.8,027.0,000.0,036.1,029.4,12.5,0000.0,0011.26,0002.87,0001.70
2023-11-04 02:13:00,SystemResetWarning,0833.3,5.00,000.00,027.9,027.0,000.0,036.1,029.4,12.5,0000.0,0011.38,0002.88,0001.70
2023-11-04 02:14:00,SystemResetWarning,0833.3,5.00,000.00,027.9,027.1,000.0,036.1,029.5,12.5,0000.0,0011.94,0002.86,0001.70
2023-11-04 02:15:00,SystemResetWarning,0833.2,5.00,000.00,027.9,027.1,000.0,036.1,029.5,12.5,0000.0,0011.96,0002.84,0001.69
2023-11-04 02:16:00,SystemResetWarning,0833.3,5.00,000.00,027.9,027.1,000.0,036.1,029.5,12.5,0000.0,0011.36,0002.88,0001.69
2023-11-04 02:17:00,SystemResetWarning,0833.2,5.01,000.00,028.0,027.2,000.0,036.2,029.5,12.5,0000.0,0010.98,0002.99,0001.70
2023-11-04 02:18:00,SystemResetWarning,0833.2,5.01,000.00,028.0,027.2,000.0,036.2,029.5,12.5,0000.0,0010.75,0002.96,0001.71
2023-11-04 02:19:00,SystemResetWarning,0833.3,5.00,000.00,028.0,027.2,000.0,036.2,029.5,12.5,0000.0,0008.93,0002.97,0001.73
2023-11-04 02:20:00,SystemResetWarning,0833.3,4.99,000.00,028.0,027.2,000.0,036.2,029.6,12.5,0000.0,0008.07,0002.90,0001.73
2023-11-04 02:21:00,SystemResetWarning,0833.2,4.99,000.00,028.1,027.2,000.0,036.2,029.6,12.6,0000.0,0008.08,0002.93,0001.74
2023-11-04 02:22:00,SystemResetWarning,0833.3,5.00,000.00,028.1,027.3,000.0,036.3,029.5,12.6,0000.0,0008.20,0002.94,0001.74
2023-11-04 02:23:00,SystemResetWarning,0833.3,5.00,000.00,028.1,027.3,000.0,036.3,029.6,12.6,0000.0,0008.26,0002.92,0001.72
2023-11-04 02:24:00,SystemResetWarning,0833.2,5.00,000.00,028.1,027.3,000.0,036.3,029.6,12.5,0000.0,0008.54,0002.91,0001.73
2023-11-04 02:25:00,SystemResetWarning,0833.2,5.00,000.00,028.1,027.3,000.0,036.3,029.6,12.5,0000.0,0008.18,0002.88,0001.73
2023-11-04 02:26:00,SystemResetWarning,0833.3,5.00,000.00,028.1,027.3,000.0,036.3,029.6,12.3,0000.0,0008.40,0002.90,0001.75
2023-11-04 02:27:00,SystemResetWarning,0833.4,5.00,000.00,028.2,027.3,000.0,036.4,029.6,12.2,0000.0,0008.51,0002.91,0001.81
2023-11-04 02:28:00,SystemResetWarning,0833.4,5.00,000.00,028.2,027.3,000.0,036.4,029.7,12.2,0000.0,0008.50,0002.83,0001.85
2023-11-04 02:29:00,SystemResetWarning,0833.4,5.00,000.00,028.2,027.3,000.0,036.4,029.7,12.2,0000.0,0008.37,0002.83,0001.88
2023-11-04 02:30:00,SystemResetWarning,0833.4,5.00,000.00,028.2,027.3,000.0,036.4,029.7,12.2,0000.0,0008.45,0002.94,0001.91
2023-11-04 02:31:00,SystemResetWarning,0833.4,5.00,000.00,028.2,027.4,000.0,036.4,029.7,12.1,0000.0,0008.34,0002.95,0001.93
2023-11-04 02:32:00,SystemResetWarning,0833.4,5.00,000.00,028.2,027.4,000.0,036.4,029.7,12.0,0000.0,0008.30,0002.94,0001.92
2023-11-04 02:33:00,SystemResetWarning,0833.4,5.00,000.00,028.2,027.4,000.0,036.5,029.7,12.1,0000.0,0008.27,0002.93,0001.91
2023-11-04 02:34:00,SystemResetWarning,0833.4,5.00,000.00,028.2,027.4,000.0,036.5,029.7,12.1,0000.0,0008.60,0002.91,0001.92
2023-11-04 02:35:00,SystemResetWarning,0833.4,4.97,000.00,028.2,025.9,000.0,036.5,029.7,12.4,0000.0,0008.16,0002.83,0001.90
2023-11-04 02:36:00,SystemResetWarning,0833.4,5.01,000.00,028.1,024.1,000.0,036.4,029.4,12.7,0000.0,0007.60,0002.78,0001.90
2023-11-04 02:37:00,SystemResetWarning,0833.4,5.01,000.00,028.0,023.9,000.0,036.3,029.0,12.9,0000.0,0006.95,0002.76,0001.90
2023-11-04 02:38:00,SystemResetWarning,0833.4,4.99,000.00,027.8,024.3,000.0,036.3,028.7,13.2,0000.0,0006.51,0002.71,0001.87
2023-11-04 02:39:00,SystemResetWarning,0833.4,4.99,000.00,027.7,024.7,000.0,036.2,028.8,13.3,0000.0,0006.17,0002.72,0001.84
2023-11-04 02:40:00,SystemResetWarning,0833.5,5.00,000.00,027.7,025.1,000.0,036.2,028.8,13.5,0000.0,0007.27,0002.80,0001.83
2023-11-04 02:41:00,SystemResetWarning,0833.6,5.02,000.00,027.7,025.5,000.0,036.2,028.9,13.7,0000.0,0007.67,0002.74,0001.83
2023-11-04 02:42:00,SystemResetWarning,0833.6,5.00,000.00,027.6,025.7,000.0,036.1,029.0,13.7,0000.0,0007.91,0002.80,0001.85
2023-11-04 02:43:00,SystemResetWarning,0833.6,5.00,000.00,027.6,026.0,000.0,036.1,029.0,13.8,0000.0,0008.44,0002.93,0001.89
2023-11-04 02:44:00,SystemResetWarning,0833.7,5.00,000.00,027.7,026.2,000.0,036.1,029.1,13.7,0000.0,0009.30,0003.03,0001.92
2023-11-04 02:45:00,SystemResetWarning,0833.7,5.00,000.00,027.7,026.3,000.0,036.1,029.1,13.9,0000.0,0009.50,0003.17,0001.97
2023-11-04 02:46:00,SystemResetWarning,0833.7,5.00,000.00,027.7,026.5,000.0,036.1,029.1,13.8,0000.0,0009.87,0003.26,0002.01
2023-11-04 02:47:00,SystemResetWarning,0833.6,5.00,000.00,027.7,026.6,000.0,036.1,029.2,13.9,0000.0,0010.06,0003.33,0002.03
2023-11-04 02:48:00,SystemResetWarning,0833.7,5.00,000.00,027.7,026.6,000.0,036.1,029.2,14.0,0000.0,0010.63,0003.37,0002.05
2023-11-04 02:49:00,SystemResetWarning,0833.7,5.00,000.00,027.7,026.7,000.0,036.1,029.2,14.0,0000.0,0010.87,0003.46,0002.07
2023-11-04 02:50:00,SystemResetWarning,0833.7,4.99,000.00,027.8,026.8,000.0,036.1,029.3,14.1,0000.0,0010.95,0003.46,0002.08
2023-11-04 02:51:00,SystemResetWarning,0833.7,5.00,000.00,027.8,026.8,000.0,036.1,029.3,14.2,0000.0,0010.77,0003.45,0002.09
2023-11-04 02:52:00,SystemResetWarning,0833.7,5.00,000.00,027.8,026.9,000.0,036.1,029.3,14.3,0000.0,0010.66,0003.42,0002.09
2023-11-04 02:53:00,SystemResetWarning,0833.7,5.01,000.00,027.8,026.9,000.0,036.1,029.3,14.3,0000.0,0011.01,0003.45,0002.06
2023-11-04 02:54:00,SystemResetWarning,0833.7,5.00,000.00,027.8,026.9,000.0,036.1,029.4,14.3,0000.0,0010.68,0003.40,0002.03
2023-11-04 02:55:00,SystemResetWarning,0833.7,5.00,000.00,027.9,027.0,000.0,036.1,029.4,14.3,0000.0,0010.87,0003.40,0002.02
2023-11-04 02:56:00,SystemResetWarning,0833.7,4.99,000.00,027.9,027.0,000.0,036.1,029.4,14.4,0000.0,0010.97,0003.34,0002.01
2023-11-04 02:57:00,SystemResetWarning,0833.8,5.00,000.00,027.9,027.0,000.0,036.2,029.4,14.4,0000.0,0011.66,0003.35,0002.00
2023-11-04 02:58:00,SystemResetWarning,0833.8,5.00,000.00,027.9,027.0,000.0,036.2,029.4,14.3,0000.0,0011.62,0003.38,0002.01
2023-11-04 02:59:00,SystemResetWarning,0833.7,5.01,000.00,027.9,027.0,000.0,036.2,029.4,14.3,0000.0,0012.51,0003.40,0002.01
